Location: Shenandoah County Park
(38.9356°N, 78.4524°W)
Time: 15:37:39
(UTC-04:00)

CAS-4B - Pass Details

Date: 21 April 2024
Orbit: 476 x 492 km, 43.0° (Epoch: 20 May)

Event Time Altitude Azimuth Distance (km) Brightness Sun altitude
Exits shadow 04:28:46 54° 323° (NW) 594 ? -21.5°
Maximum altitude 04:29:06 57° 347° (NNW) 579 ? -21.5°
Drops below altitude 10° 04:32:52 10° 67° (ENE) 1,679 ? -20.9°
Sets 04:35:06 0° 71° (ENE) 2,566 ? -20.5°
